User: anonymous
Location: DaltonSkyGazer Observatory
(42.4858°N, 73.1565°W)
Time: 17:24:47
(UTC-04:00)
Language:

Helios 1B - Orbit

View from above orbital plane
View from above orbital plane
View from above satellite
View from above satellite

Ground track
Ground track

The orbit data is extracted from the following two-line orbital elements,

1 25977U 99064A   14113.32549238  .00002588  00000-0  34805-3 0  2353
2 25977 098.1681 189.8082 0002198 077.9244 330.3149 14.80148732773619
Epoch (UTC): 23 April 2014 07:48:42
Eccentricity: 0.0002198
inclination: 98.1681°
perigee height: 627 km
apogee height: 630 km
right ascension of ascending node: 189.8082°
argument of perigee: 77.9244°
revolutions per day: 14.80148732
mean anomaly at epoch: 330.3149°
orbit number at epoch: 77361

The dashed part of the orbit path shows where the satellite is in the earth's shadow,  

DLR